KK4WAQ Weather Reports


time (UTC)temp
C
wind
direction
speed
KPH
gust
KPH
rain 1hr
cm
rain 24hr
cm
rain mn
cm
humidity
%
barometer
mb
20260504081541 8 185 0.0 0.0 0.00 0.00 0.00 83 1015.6
20260504050017 10 212 0.0 0.0 0.00 0.00 0.00 74 1016.8
20260504044523 10 212 0.0 0.0 0.00 0.00 0.00 73 1016.8
20260504043018 10 212 0.0 0.0 0.00 0.00 0.00 72 1016.9
20260504041514 11 212 0.0 0.0 0.00 0.00 0.00 71 1017.0
20260504040019 11 212 0.0 0.0 0.00 0.00 0.00 69 1017.1
20260504034514 11 212 0.0 0.0 0.00 0.00 0.00 68 1017.1
20260504033013 11 212 0.0 0.0 0.00 0.00 0.00 68 1017.1
20260504031514 12 212 0.0 0.0 0.00 0.00 0.00 65 1017.0
20260504030016 12 212 0.0 0.0 0.00 0.00 0.00 64 1017.2
20260504024512 12 212 0.0 0.0 0.00 0.00 0.00 64 1017.2
20260504023012 12 212 0.0 0.0 0.00 0.00 0.00 62 1017.2
20260504021511 13 198 0.0 0.0 0.00 0.00 0.00 62 1017.0
20260504020017 13 198 0.0 0.0 0.00 0.00 0.00 62 1016.9
20260504014511 13 198 0.0 0.0 0.00 0.00 0.00 60 1016.8
20260504013011 15 198 0.0 0.0 0.00 0.00 0.00 57 1016.7
20260504011509 15 198 0.0 0.0 0.00 0.00 0.00 53 1016.7
20260504010009 16 198 0.0 0.0 0.00 0.00 0.00 50 1016.8
20260504004517 17 198 0.0 0.0 0.00 0.00 0.00 47 1016.7
20260504003008 17 187 0.0 0.0 0.00 0.00 0.00 45 1016.6
20260504001507 17 220 0.0 4.8 0.00 0.00 0.00 44 1016.8
20260504000006 18 225 0.0 0.0 0.00 0.00 0.00 44 1017.0
20260503234505 18 223 0.0 1.6 0.00 0.00 0.00 43 1017.1
20260503233005 18 215 0.0 3.2 0.00 0.00 0.00 41 1017.2
20260503231506 18 247 0.0 1.6 0.00 0.00 0.00 42 1017.0
20260503230003 19 215 0.0 0.0 0.00 0.00 0.00 43 1017.1
20260503224501 19 189 0.0 3.2 0.00 0.00 0.00 43 1017.3
20260503223059 19 182 0.0 1.6 0.00 0.00 0.00 42 1017.6
20260503221557 20 190 0.0 0.0 0.00 0.00 0.00 42 1017.8
20260503220055 20 209 1.6 4.8 0.00 0.00 0.00 42 1018.0
20260503214555 20 194 0.0 4.8 0.00 0.00 0.00 40 1018.1
20260503213101 21 192 0.0 1.6 0.00 0.00 0.00 39 1018.4
20260503211550 21 219 0.0 0.0 0.00 0.00 0.00 39 1018.6
20260503204546 21 242 0.0 0.0 0.00 0.00 0.00 41 1019.0
20260503203050 20 152 0.0 0.0 0.00 0.00 0.00 43 1019.4
20260503201542 20 257 0.0 12.9 0.00 0.00 0.00 42 1019.6
20260503200044 20 163 0.0 1.6 0.00 0.00 0.00 40 1019.8
20260503194536 19 232 0.0 1.6 0.00 0.00 0.00 43 1020.1
20260503193035 19 247 0.0 1.6 0.00 0.00 0.00 47 1020.5
20260503191530 19 200 0.0 3.2 0.00 0.00 0.00 44 1020.7
20260503190031 18 198 0.0 1.6 0.00 0.00 0.00 46 1020.9
20260503184525 18 92 0.0 1.6 0.00 0.00 0.00 44 1021.1
20260503183037 18 186 0.0 3.2 0.00 0.00 0.00 43 1021.4
20260503181521 18 184 0.0 3.2 0.00 0.00 0.00 44 1021.5
20260503180021 17 181 0.0 3.2 0.00 0.00 0.00 45 1021.4
20260503174517 17 257 0.0 1.6 0.00 0.00 0.00 44 1021.7
20260503173017 17 208 0.0 0.0 0.00 0.00 0.00 42 1022.0
20260503171514 17 159 0.0 0.0 0.00 0.00 0.00 46 1022.2